| time (UTC) | temp F | wind direction | speed MPH | gust MPH | rain 1hr in | rain 24hr in | rain mn in | humidity % | barometer mb |
| 20260509144822 | 46 | 54 | 1.0 | 3.0 | 0.03 | 0.06 | 0.06 | 77 | 1016.8 |
| 20260509143825 | 46 | 360 | 0.0 | 2.0 | 0.02 | 0.05 | 0.05 | 77 | 1017.0 |
| 20260509142823 | 45 | 67 | 1.0 | 2.0 | 0.03 | 0.05 | 0.05 | 76 | 1017.2 |
| 20260509141823 | 45 | 66 | 2.0 | 2.0 | 0.02 | 0.04 | 0.04 | 76 | 1017.3 |
| 20260509140922 | 45 | 45 | 0.0 | 0.0 | 0.02 | 0.04 | 0.04 | 75 | 1017.2 |
| 20260509135924 | 45 | 180 | 0.0 | 0.0 | 0.01 | 0.03 | 0.03 | 76 | 1017.3 |
| 20260509135021 | 44 | 67 | 0.0 | 0.0 | 0.01 | 0.03 | 0.03 | 75 | 1017.4 |
| 20260509134023 | 44 | 67 | 0.0 | 0.0 | 0.01 | 0.03 | 0.03 | 74 | 1017.4 |
| 20260509133023 | 44 | 67 | 0.0 | 0.0 | 0.02 | 0.03 | 0.02 | 75 | 1017.3 |
| 20260509131121 | 43 | 67 | 0.0 | 0.0 | 0.01 | 0.02 | 0.02 | 74 | 1017.0 |
| 20260509130122 | 43 | 67 | 0.0 | 0.0 | 0.01 | 0.02 | 0.02 | 73 | 1017.0 |
| 20260509125221 | 43 | 67 | 0.0 | 0.0 | 0.01 | 0.02 | 0.02 | 73 | 1016.8 |
| 20260509124222 | 42 | 67 | 0.0 | 0.0 | 0.02 | 0.02 | 0.02 | 72 | 1017.1 |
| 20260509122224 | 42 | 247 | 0.0 | 0.0 | 0.01 | 0.01 | 0.01 | 72 | 1017.3 |
| 20260509120224 | 42 | 247 | 0.0 | 0.0 | 0.01 | 0.01 | 0.01 | 70 | 1017.3 |
| 20260509115322 | 42 | 247 | 0.0 | 0.0 | 0.01 | 0.01 | 0.01 | 70 | 1017.5 |
| 20260509114324 | 41 | 247 | 0.0 | 0.0 | 0.00 | 0.00 | 0.00 | 70 | 1017.4 |
| 20260509113422 | 41 | 270 | 0.0 | 0.0 | 0.00 | 0.00 | 0.00 | 69 | 1017.1 |
| 20260509112424 | 41 | 270 | 0.0 | 0.0 | 0.00 | 0.00 | 0.00 | 69 | 1017.3 |
| 20260509111521 | 41 | 270 | 0.0 | 0.0 | 0.00 | 0.00 | 0.00 | 68 | 1017.3 |
| 20260509110523 | 40 | 270 | 0.0 | 0.0 | 0.00 | 0.00 | 0.00 | 67 | 1017.3 |
| 20260509104523 | 39 | 264 | 1.0 | 2.0 | 0.00 | 0.00 | 0.00 | 66 | 1017.2 |
| 20260509102524 | 37 | 247 | 0.0 | 0.0 | 0.00 | 0.00 | 0.00 | 66 | 1017.0 |
| 20260509101522 | 37 | 247 | 0.0 | 0.0 | 0.00 | 0.00 | 0.00 | 64 | 1016.9 |
| 20260509100522 | 36 | 247 | 0.0 | 0.0 | 0.00 | 0.00 | 0.00 | 64 | 1016.7 |
| 20260509095525 | 36 | 247 | 0.0 | 0.0 | 0.00 | 0.00 | 0.00 | 64 | 1016.7 |
| 20260509093623 | 35 | 247 | 0.0 | 0.0 | 0.00 | 0.00 | 0.00 | 62 | 1016.3 |
| 20260509092623 | 35 | 247 | 0.0 | 1.0 | 0.00 | 0.00 | 0.00 | 61 | 1016.1 |
| 20260509091622 | 34 | 247 | 0.0 | 0.0 | 0.00 | 0.00 | 0.00 | 62 | 1016.1 |
| 20260509090623 | 34 | 247 | 0.0 | 0.0 | 0.00 | 0.00 | 0.00 | 61 | 1016.0 |
| 20260509085722 | 34 | 247 | 0.0 | 0.0 | 0.00 | 0.00 | 0.00 | 61 | 1016.0 |
| 20260509084724 | 34 | 247 | 0.0 | 0.0 | 0.00 | 0.00 | 0.00 | 59 | 1016.0 |
| 20260509083723 | 34 | 247 | 0.0 | 0.0 | 0.00 | 0.00 | 0.00 | 60 | 1015.9 |
| 20260509082724 | 34 | 247 | 0.0 | 0.0 | 0.00 | 0.00 | 0.00 | 59 | 1016.0 |
| 20260509081725 | 34 | 247 | 0.0 | 0.0 | 0.00 | 0.00 | 0.00 | 59 | 1015.9 |
| 20260509080723 | 35 | 247 | 0.0 | 0.0 | 0.00 | 0.00 | 0.00 | 58 | 1015.9 |
| 20260509075723 | 35 | 247 | 0.0 | 0.0 | 0.00 | 0.00 | 0.00 | 57 | 1016.0 |
| 20260509074721 | 35 | 247 | 0.0 | 0.0 | 0.00 | 0.00 | 0.00 | 58 | 1016.0 |
| 20260509073724 | 36 | 247 | 0.0 | 0.0 | 0.00 | 0.00 | 0.00 | 57 | 1016.1 |
| 20260509072822 | 36 | 247 | 0.0 | 0.0 | 0.00 | 0.00 | 0.00 | 57 | 1016.1 |
| 20260509070824 | 36 | 247 | 2.0 | 2.0 | 0.00 | 0.00 | 0.00 | 56 | 1016.3 |
| 20260509064839 | 35 | 225 | 1.0 | 1.0 | 0.00 | 0.00 | 0.00 | 54 | 1016.0 |
| 20260509062822 | 36 | 225 | 0.0 | 0.0 | 0.00 | 0.00 | 0.00 | 54 | 1015.9 |
| 20260509060825 | 37 | 225 | 0.0 | 0.0 | 0.00 | 0.00 | 0.00 | 52 | 1016.0 |
| 20260509055822 | 37 | 225 | 1.0 | 1.0 | 0.00 | 0.00 | 0.00 | 52 | 1015.9 |
| 20260509053826 | 37 | 225 | 0.0 | 0.0 | 0.00 | 0.00 | 0.00 | 51 | 1015.9 |
| 20260509052922 | 37 | 225 | 1.0 | 2.0 | 0.00 | 0.00 | 0.00 | 51 | 1016.1 |
| 20260509051923 | 37 | 225 | 1.0 | 1.0 | 0.00 | 0.00 | 0.00 | 49 | 1016.0 |
| 20260509050924 | 37 | 225 | 0.0 | 0.0 | 0.00 | 0.00 | 0.00 | 50 | 1016.0 |
| 20260509050022 | 37 | 225 | 0.0 | 1.0 | 0.00 | 0.00 | 0.00 | 48 | 1016.0 |
| 20260509045023 | 38 | 225 | 0.0 | 0.0 | 0.00 | 0.00 | 0.00 | 49 | 1015.9 |
| 20260509044022 | 38 | 225 | 0.0 | 0.0 | 0.00 | 0.00 | 0.00 | 48 | 1016.0 |
| 20260509043023 | 38 | 247 | 0.0 | 0.0 | 0.00 | 0.00 | 0.00 | 47 | 1016.0 |
| 20260509042021 | 38 | 247 | 0.0 | 0.0 | 0.00 | 0.00 | 0.00 | 46 | 1015.9 |
| 20260509041040 | 39 | 247 | 0.0 | 1.0 | 0.00 | 0.00 | 0.00 | 46 | 1015.9 |
| 20260509040038 | 39 | 247 | 1.0 | 1.0 | 0.00 | 0.00 | 0.00 | 45 | 1015.8 |
| 20260509035039 | 39 | 225 | 0.0 | 1.0 | 0.00 | 0.00 | 0.00 | 45 | 1015.6 |
| 20260509034039 | 39 | 225 | 0.0 | 0.0 | 0.00 | 0.00 | 0.00 | 44 | 1015.6 |
| 20260509033037 | 40 | 225 | 0.0 | 1.0 | 0.00 | 0.00 | 0.00 | 45 | 1015.6 |
| 20260509032037 | 40 | 225 | 0.0 | 1.0 | 0.00 | 0.00 | 0.00 | 43 | 1015.6 |
| 20260509031038 | 40 | 225 | 0.0 | 1.0 | 0.00 | 0.00 | 0.00 | 44 | 1015.6 |
| 20260509025137 | 41 | 225 | 0.0 | 1.0 | 0.00 | 0.00 | 0.00 | 42 | 1015.6 |
| 20260509023139 | 42 | 225 | 0.0 | 0.0 | 0.00 | 0.00 | 0.00 | 43 | 1015.5 |
| 20260509022235 | 42 | 225 | 0.0 | 0.0 | 0.00 | 0.00 | 0.00 | 41 | 1015.4 |
| 20260509021236 | 43 | 225 | 0.0 | 0.0 | 0.00 | 0.00 | 0.00 | 41 | 1015.6 |
| 20260509020237 | 43 | 225 | 0.0 | 1.0 | 0.00 | 0.00 | 0.00 | 41 | 1015.4 |
| 20260509015239 | 44 | 225 | 0.0 | 0.0 | 0.00 | 0.00 | 0.00 | 41 | 1015.1 |
| 20260509014335 | 44 | 225 | 0.0 | 0.0 | 0.00 | 0.00 | 0.00 | 41 | 1014.9 |
| 20260509013336 | 45 | 225 | 0.0 | 0.0 | 0.00 | 0.00 | 0.00 | 41 | 1014.8 |
| 20260509012336 | 46 | 225 | 0.0 | 0.0 | 0.00 | 0.00 | 0.00 | 40 | 1014.8 |
| 20260509011337 | 46 | 225 | 0.0 | 0.0 | 0.00 | 0.00 | 0.00 | 41 | 1014.5 |
| 20260509010338 | 47 | 225 | 0.0 | 0.0 | 0.00 | 0.00 | 0.00 | 40 | 1014.4 |
| 20260509005335 | 49 | 225 | 0.0 | 0.0 | 0.00 | 0.00 | 0.00 | 40 | 1014.3 |
| 20260509004337 | 50 | 225 | 0.0 | 0.0 | 0.00 | 0.00 | 0.00 | 40 | 1014.0 |
| 20260509003338 | 51 | 225 | 0.0 | 0.0 | 0.00 | 0.00 | 0.00 | 39 | 1013.9 |
| 20260509002436 | 52 | 270 | 0.0 | 0.0 | 0.00 | 0.00 | 0.00 | 39 | 1013.6 |
| 20260509001437 | 53 | 292 | 0.0 | 0.0 | 0.00 | 0.00 | 0.00 | 39 | 1013.5 |
| 20260509000535 | 53 | 202 | 1.0 | 3.0 | 0.00 | 0.00 | 0.00 | 40 | 1013.3 |
| 20260508235538 | 53 | 225 | 0.0 | 1.0 | 0.00 | 0.00 | 0.00 | 40 | 1013.0 |
| 20260508234635 | 53 | 223 | 0.0 | 2.0 | 0.00 | 0.00 | 0.00 | 40 | 1012.9 |
| 20260508233639 | 53 | 202 | 0.0 | 1.0 | 0.00 | 0.00 | 0.00 | 40 | 1012.7 |
| 20260508232637 | 53 | 285 | 0.0 | 1.0 | 0.00 | 0.00 | 0.00 | 40 | 1012.8 |
| 20260508231635 | 54 | 270 | 0.0 | 0.0 | 0.00 | 0.00 | 0.00 | 39 | 1012.5 |
| 20260508230636 | 54 | 254 | 1.0 | 3.0 | 0.00 | 0.00 | 0.00 | 40 | 1012.4 |
| 20260508225638 | 55 | 290 | 0.0 | 2.0 | 0.00 | 0.00 | 0.00 | 39 | 1012.4 |
| 20260508222736 | 55 | 244 | 2.0 | 6.0 | 0.00 | 0.00 | 0.00 | 39 | 1012.2 |
| 20260508221735 | 55 | 217 | 3.0 | 6.0 | 0.00 | 0.00 | 0.00 | 40 | 1012.3 |
| 20260508220737 | 55 | 241 | 0.0 | 3.0 | 0.00 | 0.00 | 0.00 | 40 | 1012.3 |
| 20260508215752 | 56 | 242 | 4.0 | 6.0 | 0.00 | 0.00 | 0.00 | 40 | 1012.4 |
| 20260508214735 | 58 | 216 | 4.0 | 6.0 | 0.00 | 0.00 | 0.00 | 39 | 1012.1 |
| 20260508213739 | 58 | 218 | 3.0 | 6.0 | 0.00 | 0.00 | 0.00 | 39 | 1012.1 |
| 20260508212836 | 57 | 231 | 4.0 | 7.0 | 0.00 | 0.00 | 0.00 | 40 | 1012.2 |
| 20260508211838 | 57 | 213 | 4.0 | 7.0 | 0.00 | 0.00 | 0.00 | 39 | 1012.1 |
| 20260508210837 | 58 | 265 | 4.0 | 6.0 | 0.00 | 0.00 | 0.00 | 39 | 1011.9 |
| 20260508205837 | 57 | 242 | 3.0 | 6.0 | 0.00 | 0.00 | 0.00 | 39 | 1011.8 |
| 20260508204838 | 57 | 222 | 2.0 | 7.0 | 0.00 | 0.00 | 0.00 | 40 | 1011.8 |
| 20260508203836 | 58 | 234 | 5.0 | 7.0 | 0.00 | 0.00 | 0.00 | 40 | 1011.8 |
| 20260508202836 | 59 | 248 | 3.0 | 5.0 | 0.00 | 0.00 | 0.00 | 40 | 1011.8 |
| 20260508201837 | 58 | 214 | 3.0 | 7.0 | 0.00 | 0.00 | 0.00 | 40 | 1011.8 |
| 20260508200836 | 59 | 238 | 4.0 | 7.0 | 0.00 | 0.00 | 0.00 | 42 | 1011.8 |
| 20260508194837 | 58 | 242 | 2.0 | 5.0 | 0.00 | 0.00 | 0.00 | 41 | 1011.7 |
| 20260508193838 | 57 | 224 | 2.0 | 5.0 | 0.00 | 0.00 | 0.00 | 43 | 1011.5 |
| 20260508190837 | 56 | 233 | 3.0 | 5.0 | 0.00 | 0.00 | 0.00 | 42 | 1011.9 |
| 20260508185837 | 57 | 227 | 4.0 | 9.0 | 0.00 | 0.00 | 0.00 | 43 | 1012.0 |
| 20260508184935 | 58 | 263 | 6.0 | 10.0 | 0.00 | 0.00 | 0.00 | 43 | 1011.7 |
| 20260508183938 | 58 | 222 | 2.0 | 4.0 | 0.00 | 0.00 | 0.00 | 44 | 1011.7 |
| 20260508182035 | 57 | 265 | 5.0 | 9.0 | 0.00 | 0.00 | 0.00 | 44 | 1011.8 |
| 20260508181039 | 57 | 239 | 5.0 | 8.0 | 0.00 | 0.00 | 0.00 | 43 | 1011.8 |
| 20260508175235 | 58 | 186 | 0.0 | 3.0 | 0.00 | 0.00 | 0.00 | 44 | 1011.7 |
| 20260508174237 | 58 | 230 | 3.0 | 7.0 | 0.00 | 0.00 | 0.00 | 44 | 1011.7 |
| 20260508173335 | 58 | 177 | 1.0 | 3.0 | 0.00 | 0.00 | 0.00 | 46 | 1011.8 |
| 20260508172338 | 58 | 312 | 3.0 | 6.0 | 0.00 | 0.00 | 0.00 | 46 | 1011.7 |
| 20260508171435 | 57 | 220 | 1.0 | 3.0 | 0.00 | 0.00 | 0.00 | 45 | 1011.8 |
| 20260508170438 | 57 | 213 | 1.0 | 3.0 | 0.00 | 0.00 | 0.00 | 47 | 1011.7 |
| 20260508165437 | 56 | 243 | 7.0 | 9.0 | 0.00 | 0.00 | 0.00 | 46 | 1011.8 |
| 20260508164437 | 56 | 222 | 3.0 | 7.0 | 0.00 | 0.00 | 0.00 | 47 | 1011.9 |
| 20260508163437 | 56 | 209 | 5.0 | 9.0 | 0.00 | 0.00 | 0.00 | 48 | 1012.0 |
| 20260508162437 | 56 | 271 | 3.0 | 7.0 | 0.00 | 0.00 | 0.00 | 48 | 1012.0 |
| 20260508160635 | 56 | 241 | 5.0 | 12.0 | 0.00 | 0.00 | 0.00 | 48 | 1011.8 |
| 20260508155639 | 56 | 238 | 3.0 | 4.0 | 0.00 | 0.00 | 0.00 | 49 | 1011.9 |
| 20260508152838 | 56 | 245 | 6.0 | 10.0 | 0.00 | 0.00 | 0.00 | 49 | 1012.0 |
| 20260508150837 | 56 | 227 | 9.0 | 13.0 | 0.00 | 0.00 | 0.00 | 50 | 1012.1 |
| 20260508145837 | 56 | 242 | 3.0 | 5.0 | 0.00 | 0.00 | 0.00 | 51 | 1012.0 |